Tracking 29892 objects as of 21-Nov-2024
HD Live streaming from Space Station
objects crossing your sky now

STARLINK-30441

Track STARLINK-30441 now!
10-day predictions
STARLINK-30441 is classified as:


NORAD ID: 57869
Int'l Code: 2023-144F
Perigee: 566.0 km
Apogee: 566.4 km
Inclination: 43.0 °
Period: 95.8 minutes
Semi major axis: 6937 km
RCS: Unknown
Launch date: September 16, 2023
Source: United States (US)
Launch site: AIR FORCE EASTERN TEST RANGE (AFETR)
Your satellite tracking list
Your tracking list is empty




NASA's NSSDC Master Catalog

Two Line Element Set (TLE):
1 57869U 23144F   24326.09145921  .00000542  00000-0  55141-4 0  9998
2 57869  42.9994 341.3108 0000330 313.4954  46.5861 15.02536271 66328
Source of the keplerian elements: AFSPC